Regional Weather Roundup
Issued by NWS San Angelo, TX

Home | Current Version | Previous Version | Text Only | Print | Product List | Glossary On
Versions: 1 2 3 4 5 6 7 8 9 10 11 12 13 14 15 16 17 18 19 20 21 22 23 24 25 26 27 28 29 30 31 32 33 34 35 36 37 38 39 40 41 42 43 44 45 46 47 48 49 50
000
ASUS44 KSJT 290910
RWRSJT
WEST CENTRAL TEXAS REGIONAL WEATHER ROUNDUP
NATIONAL WEATHER SERVICE SAN ANGELO TX
400 AM CDT THU JUN 29 2017

NOTE: "FAIR" INDICATES FEW OR NO CLOUDS BELOW 12,000 FEET WITH NO
SIGNIFICANT WEATHER AND/OR OBSTRUCTIONS TO VISIBILITY.

TXZ049-054-064>066-071>073-076>078-098-099-113-114-127-128-139-140-
154-155-168>170-291000
...LOCATIONS ACROSS WEST CENTRAL TEXAS...

CITY           SKY/WX    TMP DP  RH WIND       PRES   REMARKS
SAN ANGELO     CLEAR     76  64  66 S9        29.84F
ABILENE        PTCLDY    75  66  73 S14       29.83F
DYESS AFB      PTCLDY    76  66  70 S10       29.82R
JUNCTION       CLEAR     73  68  84 S5        29.88F
SWEETWATER     CLEAR     76  64  66 S17       29.88S
BROWNWOOD      MOCLDY    73  68  83 S6        29.87S
COLEMAN        SUNNY     72  65  78 S6        29.87S
SONORA         CLEAR     75  66  73 S7        29.92F
OZONA            N/A     73  63  68 S8        29.90F
BRADY          NOT AVBL
$$

TEXAS PANHANDLE/OKLAHOMA PANHANDLE

CITY           SKY/WX    TMP DP  RH WIND       PRES   REMARKS
AMARILLO       CLEAR     74  59  59 S20G29    29.81F
BORGER         CLEAR     79  59  50 S22G30    29.75S
CANADIAN       CLEAR     75  66  73 S21G31    29.71F
DALHART        LGT RAIN  70  59  68 S13       29.79F
DUMAS          SUNNY     75  56  52 SW21      29.78F
GUYMON         NOT AVBL
HEREFORD       MOSUNNY   74  60  62 SW12      29.84F
PAMPA          SUNNY     74  62  66 S21G28    29.76F
PERRYTON       CLEAR     76  63  64 S21       29.72S
$$

SOUTHERN PANHANDLE/SOUTH PLAINS/ROLLING PLAINS

CITY           SKY/WX    TMP DP  RH WIND       PRES   REMARKS
LUBBOCK        PTCLDY    76  60  57 S15       29.84F
SNYDER         CLEAR     75  64  66 S10       29.86F
CHILDRESS      CLOUDY    76  63  64 S13       29.79F
SEMINOLE       SUNNY     73  61  66 S10       29.87F
$$

PERMIAN BASIN

CITY           SKY/WX    TMP DP  RH WIND       PRES   REMARKS
MIDLAND        CLEAR     78  62  57 S14       29.85F
ODESSA         CLEAR     77  62  59 S13       29.86F
WINK           CLEAR     76  62  62 SE15      29.81F
$$

FAR WEST/SOUTHWEST MOUNTAINS/TRANS PECOS

CITY           SKY/WX    TMP DP  RH WIND       PRES   REMARKS
ALPINE         SUNNY     72  57  58 SW7       30.04S
DRYDEN           N/A     76  62  62 CALM      29.84F
EL PASO        PTCLDY    83  34  17 S7        29.91S
FORT STOCKTON  CLEAR     75  62  64 S16       29.86F
GUADALUPE PASS NOT AVBL
MARFA          CLEAR     60  50  69 N7        30.05S
PECOS          SUNNY     74  58  56 NE8       29.81S
$$

DALLAS/FORT WORTH METROPLEX

CITY           SKY/WX    TMP DP  RH WIND       PRES   REMARKS
DFW AIRPORT    PTCLDY    77  72  84 S14       29.83F
FTW MEACHAM    CLEAR     77  72  84 S17       29.84S
DAL-EXECUTIVE  CLEAR     75  72  90 S9        29.85S
GRAND PRAIRIE  CLEAR     75  69  81 SE8       29.87S
ADDISON        CLEAR     75  71  86 S12       29.87S
MESQUITE       SUNNY     73  71  92 S8        29.86F
LANCASTER      SUNNY     73  71  91 SE6       29.87S
$$

NORTH CENTRAL TEXAS

CITY           SKY/WX    TMP DP  RH WIND       PRES   REMARKS
SHRMAN/DENISON SUNNY     74  70  86 SE16      29.85F
GAINESVILLE    CLEAR     74  70  88 S7        29.85F
BRIDGEPORT     SUNNY     75  68  77 S8        29.85S
DENTON         CLEAR     76  71  85 S14       29.84S
WAXAHACHIE     SUNNY     73  73 100 SE8       29.88S
GRANBURY       SUNNY     76  70  80 SE9       29.85F
$$

WESTERN NORTH TEXAS

CITY           SKY/WX    TMP DP  RH WIND       PRES   REMARKS
WICHITA FALLS  CLEAR     74  67  78 S16       29.79S
VERNON         SUNNY     78  63  60 S15       29.80S
BRECKENRIDGE   SUNNY     77  67  71 S13       29.82F
COMANCHE       CLEAR     72  72 100 S7        29.86F
$$

CENTRAL AND SOUTH CENTRAL TEXAS

CITY           SKY/WX    TMP DP  RH WIND       PRES   REMARKS
AUSTIN/BERGSTM MOCLDY    74  73  97 CALM      29.86S
WACO           MOCLDY    75  72  90 SE10      29.86S
HILLSBORO      SUNNY     74  72  94 SE8       29.87S
TEMPLE         CLOUDY    75  72  90 SE10      29.87F
KILLEEN-GRAY   MOCLDY    72  72 100 S3        29.86S
FORT HOOD      CLEAR     73  71  94 SE6       29.84F
GEORGETOWN     PTCLDY    75  70  83 S3        29.87S
LAGO VISTA     PTSUNNY   75  73  92 SE3       29.88F
SAN MARCOS     CLOUDY    75  73  94 CALM      29.87F
NEW BRAUNFELS  PTCLDY    72  70  93 CALM      29.85F FOG
RANDOLPH AFB   FOG       73  73 100 SE3       29.85F VSB 1
SAN ANTONIO    PTCLDY    76  72  87 SE5       29.87F
STINSON        CLEAR     76  72  87 CALM      29.83F
PLEASANTON     NOT AVBL
LA GRANGE      PTCLDY    76  75  97 CALM      29.83F
GIDDINGS       MOSUNNY   74  72  94 CALM      29.86F
$$

EAST TEXAS

CITY           SKY/WX    TMP DP  RH WIND       PRES   REMARKS
PARIS            N/A     72  70  93 SE6       29.88F
CLARKSVILLE    NOT AVBL
TYLER          CLEAR     74  72  93 SE8       29.88F
LONGVIEW       PTCLDY    73  72  96 S7        29.89S
PALESTINE      SUNNY     73  72  97 SE3       29.90S
NACOGDOCHES    PTCLDY    72  70  94 SE3       29.87F
$$

TEXAS HILL COUNTRY AND EDWARDS PLATEAU

CITY           SKY/WX    TMP DP  RH WIND       PRES   REMARKS
LLANO          SUNNY     73  72  94 CALM      29.90F
HORSESHOE BAY  FAIR      74  71  90 MISG      29.87S
KERRVILLE      CLOUDY    74  72  93 S8        29.90S
FREDERICKSBRG  CLEAR     72  69  90 S5        29.90S
ROCKSPRINGS    MOSUNNY   72  72 100 S10       29.93S
HONDO          CLEAR     75  72  90 E5        29.86F
UVALDE         SUNNY     71  70  95 CALM      29.85F
DEL RIO        CLEAR     77  70  79 SE9       29.81F
$$

SOUTHEAST TEXAS

CITY           SKY/WX    TMP DP  RH WIND       PRES   REMARKS
COLLEGE STN    CLEAR     74  72  93 SE3       29.86F
CALDWELL       NOT AVBL
CROCKETT       SUNNY     72  72 100 CALM      29.91S
BRENHAM        PTCLDY    75  74  96 CALM      29.86F
HUNTSVILLE     PTCLDY    75  69  81 CALM      29.87F
CONROE         PTCLDY    72  70  93 CALM      29.86F
HOUSTON BUSH   PTCLDY    75  73  93 SE5       29.85F
HOUSTON HOBBY  PTCLDY    78  75  90 CALM      29.85R
PERLAND        PTCLDY    78  75  90 CALM      29.86S
WHARTON        SUNNY     74  72  95 CALM      29.85F
$$

THE UPPER TEXAS COAST

CITY           SKY/WX    TMP DP  RH WIND       PRES   REMARKS
ORANGE         CLOUDY    78  77  98 S7        29.89S
PORT ARTHUR      N/A    N/A N/A N/A MISG      29.86F
GALVESTON      CLOUDY    79  77  94 S14       29.85F
ANGLETON       PTCLDY    75  74  96 CALM      29.85R
BAY CITY       MOSUNNY   75  75  99 CALM      29.84S
$$

TEXAS COASTAL BEND, RIO GRANDE PLAINS DEEP SOUTH TEXAS

CITY           SKY/WX    TMP DP  RH WIND       PRES   REMARKS
VICTORIA       CLEAR     75  73  93 NE5       29.84F
BEEVILLE       FAIR     N/A N/A N/A E3        29.83F
ROCKPORT       CLOUDY    79  76  90 CALM      29.82F
PORT ARANSAS   PTSUNNY   82  76  81 S12G20    29.82F
PORT LAVACA    MOSUNNY   76  76 100 CALM      29.83F
CORPUS CHRISTI PTCLDY    76  76 100 S3        29.82F
KINGSVILLE NAS CLEAR     77  77 100 S5        29.82F
COTULLA        CLEAR     77  73  87 SE6       29.82F
LAREDO         CLEAR     80  74  81 SE8       29.82S
BROWNSVILLE    CLEAR     78  77  96 S8        29.84F
PORT ISABEL    CLEAR     80  78  94 S9        29.82F
HEBBRONVILLE   SUNNY     75  73  93 S3        29.84S
MCALLEN        CLEAR     81  77  88 SE10      29.82F
WESLACO        CLEAR     78  76  93 S6        29.81F
FALFURRIAS     SUNNY     78  76  93 SE6       29.82S
EDINBURG       PTSUNNY   82  76  83 S7        29.82S
$$



USA.gov is the U.S. government's official web portal to all federal, state and local government web resources and services.